Lexington Weather

Lexington, Massachusetts, USA

40°F
3/30/2020 9:44am 
  • Lexington Conditions: Mist, Overcast
  • Temperature: 40.3°F / 4.6°CWarmer 0.9°F than last hour.
  • Dew Point: 39.6°FIncreased 0.9°Fsince last hour.
  • Relative Humidity: 97
  • Wind: Wind from ENE ENE 7 mph, 10-min avg: 3 mph, gust: 8 mph
  • Barometer: 29.98 inRising 0.02  inHg/hr Rising Slowly
  • Visibility: 2 miles
  • Rain Today: 0.02 in
  •   

Regional Weather Roundup
for Boston / Norton, MA

        
000
ASUS41 KBOX 271504
RWRBOX

REGIONAL WEATHER ROUNDUP
NATIONAL WEATHER SERVICE BOSTON/NORTON MA
1100 AM EDT FRI MAR 27 2020

NOTE:  "FAIR" INDICATES FEW OR NO CLOUDS BELOW 12,000 FEET WITH NO 
SIGNIFICANT WEATHER AND/OR OBSTRUCTIONS TO VISIBILITY.

MAZALL-271600-
EASTERN MASSACHUSETTS
  
CITY           SKY/WX    TMP DP  RH WIND       PRES   REMARKS
BOSTON         FAIR      56  26  31 NW17G23   29.76R                  
BEVERLY        FAIR      54  30  40 NW14G21   29.75S                  
LAWRENCE       FAIR      53  30  41 NW13      29.78R                  
BEDFORD        FAIR      58  26  29 N17G23    29.76R                  
BLUE HILL        N/A     54  25  32 NW17G30   29.74R                  
NORWOOD        FAIR      60  31  33 NW14      29.76R                  
MARSHFIELD     FAIR      57  32  38 NW12G20   29.75R                  
PLYMOUTH       FAIR      58  36  43 NW9       29.75R                  
TAUNTON        FAIR      58  32  37 NW8       29.76R                  
NEW BEDFORD    FAIR      57  38  48 NW8       29.76R                  
$$

MAZALL-271600-
CAPE COD AND THE ISLANDS
  
CITY           SKY/WX    TMP DP  RH WIND       PRES   REMARKS
FALMOUTH       SUNNY     57  37  47 NW12G23   29.75R                  
HYANNIS        FAIR      58  38  47 NW13G22   29.73R                  
CHATHAM        FAIR      55  40  56 VRB7G25   29.75R                  
PROVINCETOWN   FAIR      50  41  71 NW10      29.76R                  
NANTUCKET      FAIR      50  46  86 W18       29.76R                  
MARTHAS VNYRD  FAIR      55  44  66 NW9       29.77R                  
$$
 
MAZALL-271600-
CENTRAL AND WESTERN MASSACHUSETTS
  
CITY           SKY/WX    TMP DP  RH WIND       PRES   REMARKS
WORCESTER      FAIR      51  23  33 N16G29    29.79R                  
FITCHBURG      FAIR      55  25  31 NW13G23   29.79R                  
ORANGE         FAIR      53  27  36 NW16      29.81R                  
SPRINGFIELD    MOSUNNY   57  29  35 N13       29.80R                  
WESTFIELD      FAIR      56  27  32 N13G24    29.81R                  
NORTH ADAMS    FAIR      49  31  49 NW8G23    29.86R                  
PITTSFIELD     FAIR      49  32  52 NW12G18   29.83R                  
$$
 
RIZALL-271600-
RHODE ISLAND
  
CITY           SKY/WX    TMP DP  RH WIND       PRES   REMARKS
PROVIDENCE     PTSUNNY   60  35  39 N15       29.77S                  
NEWPORT        FAIR      58  39  49 NW13      29.77R                  
BLOCK ISLAND   FAIR      51  43  74 W10       29.79S                  
SMITHFIELD     FAIR      56  29  35 N17G23    29.77R                  
WESTERLY       PTSUNNY   62  37  39 N15       29.79R                  
$$
 
CTZALL-271600-
CONNECTICUT
  
CITY           SKY/WX    TMP DP  RH WIND       PRES   REMARKS
BRADLEY INTL   FAIR      58  31  35 NW16G23   29.81R                  
HARTFORD       FAIR      58  34  40 NW12      29.81S                  
BRIDGEPORT     FAIR      60  34  37 NW17      29.81R                  
DANBURY        FAIR      56  32  40 NW9G18    29.84R                  
GROTON         FAIR      57  39  51 N13       29.78S                  
NEW HAVEN      PTSUNNY   59  39  47 N12G17    29.81R                  
CHESTER        FAIR      57  36  44 N13       29.80R                  
MERIDEN        FAIR      57  33  40 N12G20    29.81S                  
WILLIMANTIC    FAIR      57  33  40 NW12      29.79S                  
OXFORD         FAIR      54  36  50 N15       29.82R                  
$$

MEZ002-015-021-024-NHZ003-005-008-011-012-014-VTZ005-008-271600-
NORTHERN NEW ENGLAND
  
CITY           SKY/WX    TMP DP  RH WIND       PRES   REMARKS
PORTLAND ME    FAIR      53  30  41 NW18G29   29.72R                  
BANGOR ME      CLOUDY    45  30  55 NW17G29   29.65R                  
CONCORD NH     FAIR      51  27  39 NW17G25   29.78R                  
MANCHESTER NH  FAIR      53  26  35 NW10G22   29.76R                  
NASHUA NH      FAIR      53  25  33 N17G29    29.78R                  
PORTSMOUTH NH  MOSUNNY   53  24  32 W15G24    29.72R                  
JAFFREY NH     FAIR      51  30  44 NW7G16    29.78R                  
KEENE NH       FAIR      51  27  39 NW13G26   29.80S                  
BURLINGTON VT  PTSUNNY   43  30  60 N15       29.91R                  
MT. WASHINGTON BLWGSNOW  16  16 100 NW56G70     N/A  VSB 1/16WCI -10  
$$

NYZ052-076-271600-
EASTERN NEW YORK
  
CITY           SKY/WX    TMP DP  RH WIND       PRES   REMARKS
ALBANY         FAIR      50  32  50 W12       29.90R                  
NEW YORK CITY  FAIR      59  42  53 N10       29.82R                  
$$
 
ANZALL-271600-
MARINE OBSERVATIONS
  
STATION/POSITION TIME  TEMP    WIND        PRES    VSBY  WAVE
                       AIR SEA DIR/SP/G                  HT/PER
                 (UTC) (F)     (DEG/KT/KT) (MB)    (MI)  (FT/S)
BOSTON BUOY      1450   47 43  310/ 12/ 14 1006.9R         6/11
BUZZARDS BAY     1400          250/ 17/ 18 1008.8R
NANTUCKET SOUND  1440                        N/A           2/ 3
MASS BAY-STELLWA 1404   46 41  340/ 16/ 17 1004.9R  1 7/8  8/11
ISLE OF SHOALS   1400   47     290/ 15/ 17 1006.0R
S OF BLOCK IS    1430      44                N/A           6/12
$$

......................KEY.........................
  SKY/WX - SKY CONDITION/PRESENT WEATHER
  TMP    - TEMPERATURE IN FAHRENHEIT
  DWPT   - DEWPOINT IN FAHRENHEIT
  RH     - RELATIVE HUMIDITY IN PERCENT
  WIND   - DIRECTION AND SPEED IN MPH
  PRES   - MEAN SEA LEVEL PRESSURE IN INCHES OF HG
  WCI    - WIND CHILL INDEX
  VSB    - VISIBILITY IN MILES
  HX     - HEAT INDEX
  TC     - TEMPERATURE IN CELSIUS
  VRB    - VARIABLE WIND DIRECTION
  N/A    - NOT AVAILABLE
  
      

Other recent Regional Weather Roundups

Mon Mar 30, 9:04am

Mon Mar 30, 8:04am

Mon Mar 30, 7:04am

Mon Mar 30, 6:04am

Mon Mar 30, 5:04am

Mon Mar 30, 4:04am

Mon Mar 30, 3:05am

Mon Mar 30, 2:04am

Mon Mar 30, 1:04am

Mon Mar 30, 12:04am

Sun Mar 29, 11:04pm

Sun Mar 29, 10:05pm

Sun Mar 29, 9:04pm

Sun Mar 29, 8:04pm

Sun Mar 29, 7:04pm

Sun Mar 29, 6:04pm

Sun Mar 29, 5:05pm

Sun Mar 29, 4:04pm

Sun Mar 29, 3:04pm

Sun Mar 29, 2:04pm

Sun Mar 29, 1:05pm

Sun Mar 29, 12:04pm

Sun Mar 29, 11:04am

Sun Mar 29, 10:04am

Sun Mar 29, 9:04am

Sun Mar 29, 8:04am

Sun Mar 29, 7:04am

Sun Mar 29, 6:04am

Sun Mar 29, 5:04am

Sun Mar 29, 4:04am

Sun Mar 29, 3:04am

Sun Mar 29, 2:04am

Sun Mar 29, 1:04am

Sun Mar 29, 12:04am

Sat Mar 28, 11:05pm

Sat Mar 28, 10:04pm

Sat Mar 28, 9:04pm

Sat Mar 28, 8:04pm

Sat Mar 28, 7:04pm

Sat Mar 28, 6:04pm

Sat Mar 28, 5:05pm

Sat Mar 28, 4:04pm

Sat Mar 28, 3:04pm

Sat Mar 28, 2:04pm

Sat Mar 28, 1:05pm

Sat Mar 28, 12:04pm

Sat Mar 28, 11:04am

Sat Mar 28, 10:04am

Sat Mar 28, 9:04am

Sat Mar 28, 8:04am

Sat Mar 28, 7:04am

Sat Mar 28, 6:04am

Sat Mar 28, 5:04am

Sat Mar 28, 4:04am

Sat Mar 28, 3:04am

Sat Mar 28, 2:04am

Sat Mar 28, 1:04am

Sat Mar 28, 12:04am

Fri Mar 27, 11:04pm

Fri Mar 27, 10:04pm

Fri Mar 27, 9:04pm

Fri Mar 27, 8:04pm

Fri Mar 27, 7:05pm

Fri Mar 27, 6:04pm

Fri Mar 27, 5:05pm

Fri Mar 27, 4:05pm

Fri Mar 27, 3:04pm

Fri Mar 27, 2:05pm

Fri Mar 27, 1:04pm

Fri Mar 27, 12:04pm

Fri Mar 27, 10:04am

Meta data:

ID: 116c40c3-9332-462e-8a96-c45aa9df3931
Link: https://api.weather.gov/products/116c40c3-9332-462e-8a96-c45aa9df3931